Location: Newark
(49.8969°N, 3.3422°E)
Time: 11:20:02
(UTC+00:00)

Envisat - Pass Details

Date: 13 December 2019
Orbit: 764 x 766 km, 98.1° (Epoch: 18 January)

Event Time Altitude Azimuth Distance (km) Brightness Sun altitude
Rises 17:25:27 0° 161° (SSE) 3,222 6.2 -15.1°
Reaches altitude 10° 17:27:45 10° 161° (SSE) 2,300 5.5 -15.5°
Maximum altitude 17:32:49 83° 74° (ENE) 779 2.9 -16.3°
Drops below altitude 10° 17:37:56 10° 347° (NNW) 2,316 5.5 -17.1°
Sets 17:40:15 0° 347° (NNW) 3,247 6.2 -17.4°
